Regional Weather Roundup
Issued by NWS

Home | Current Version | Previous Version | Graphics & Text | Print | Product List | Glossary On
Versions: 1 2 3 4 5 6 7 8 9 10 11 12 13 14 15 16 17 18 19 20 21 22 23 24 25 26 27 28 29 30 31 32 33 34 35 36 37 38 39 40 41 42 43 44 45 46 47 48 49 50
000
ASUS43 KDMX 230706
RWRIA

WEATHER ROUNDUP FOR IOWA
NATIONAL WEATHER SERVICE DES MOINES IA
200 AM CDT FRI JUN 23 2017

NOTE: "FAIR" INDICATES FEW OR NO CLOUDS BELOW 12,000 FEET WITH NO
SIGNIFICANT WEATHER AND/OR OBSTRUCTIONS TO VISIBILITY.

* - THESE STATIONS ARE NOT NWS STATIONS...THUS NOT UNDER NWS
QUALITY CONTROL.  THEY ALSO DO NOT REPORT WEATHER SUCH
AS PRECIPITATION OR FOG.

IAZ001>003-012>014-020>022-031>034-043>046-230800-
   NORTHWEST IOWA

CITY           SKY/WX    TMP DP  RH WIND       PRES   REMARKS
CARROLL *      CLOUDY    66  61  82 N10       29.82R
CHEROKEE *     CLEAR     58  55  88 CALM      29.84R
DENISON *      CLOUDY    68  59  73 N7        29.86R
LE MARS *      CLEAR     55  54  94 CALM      29.85S
ORANGE CITY *  CLEAR     57  54  88 NW5       29.86R
SHELDON *      CLEAR     54  52  94 W5        29.84R
SIOUX CITY       N/A    N/A N/A N/A MISG      29.85R
SPENCER        CLEAR     52  51  97 NW9       29.83S
STORM LAKE *   CLOUDY    61  54  77 CALM      29.84S
$$

IAZ055>058-069>071-079>083-090>094-230800-
   SOUTHWEST IOWA

CITY           SKY/WX    TMP DP  RH WIND       PRES   REMARKS
ATLANTIC *     CLOUDY    68  63  83 N9        29.82S
AUDUBON *      CLOUDY    66  61  82 N13       29.83R
CLARINDA *       N/A     72  66  83 N20G26    29.80R
COUNCIL BLFS * MOCLDY    70  63  78 N12       29.84S
CRESTON *      CLOUDY    68  66  94 N17G25    29.79R
HARLAN  *      CLOUDY    68  59  73 N13       29.87R
LAMONI         TSTM      76  72  87 NW15G23   29.73R
RED OAK *      CLOUDY    68  64  88 N12       29.81R
SHENANDOAH *   CLOUDY    70  64  83 N24G30    29.79F
$$

IAZ047>049-059>061-072>074-084-230800-
   CENTRAL IOWA

CITY           SKY/WX    TMP DP  RH WIND       PRES   REMARKS
AMES           PTCLDY    69  67  93 N13       29.76R
ANKENY *       CLOUDY    70  66  88 N8        29.75S
BOONE *        CLOUDY    66  63  88 NW13G22   29.77R
CHARITON *     HVY RAIN  70  70 100 NW12      29.72S
DES MOINES     CLOUDY    70  67  90 N12       29.74R
GRINNELL*      CLOUDY    70  67  90 N10G21    29.73R
KNOXVILLE *    LGT RAIN  70  68  94 W7G14     29.75R
MARSHALLTOWN   CLOUDY    70  68  93 N13       29.72R
NEWTON *       MOCLDY    70  68  94 N13G21    29.73R
PELLA *        CLOUDY    68  65  91 NW6       29.73F
PERRY *          N/A     68  64  87 N8        29.79R
$$

IAZ004>006-015-016-023>025-035-036-230800-
   NORTH CENTRAL IOWA

CITY           SKY/WX    TMP DP  RH WIND       PRES   REMARKS
ALGONA *       CLOUDY    59  59 100 CALM      29.82R
CLARION *        N/A     64  64 100 N9        29.79R
ESTHERVILLE    CLEAR     56  55  97 W6        29.81S
FORT DODGE *   CLOUDY    64  57  77 NW5       29.82S
MASON CITY     CLOUDY    64  62  93 NW6       29.79S
FOREST CITY *    N/A     63  54  72 NW3       29.79S
WEBSTER CITY * CLOUDY    66  63  88 NW13      29.77F
IOWA FALLS *     N/A     67  65  91 NW12      29.76S
$$

IAZ007>011-017>019-026>030-037>042-050>054-066-230800-
   NORTHEAST IOWA

CITY           SKY/WX    TMP DP  RH WIND       PRES   REMARKS
CEDAR RAPIDS   TSTM      69  69 100 N13       29.66S FOG
CHARLES CITY * CLOUDY    66  66 100 NW8       29.76R
CLINTON *      MOCLDY    75  72  90 SW7       29.68R
DECORAH *      CLOUDY    66  64  94 N8        29.72F
DUBUQUE        TSTM      66  65  96 SW12      29.71R FOG
MONTICELLO *   HVY RAIN  68  66  94 S7        29.68R
OELWEIN *      CLOUDY    68  68 100 N10       29.72R
WATERLOO       CLOUDY    68  65  90 N12       29.71S
$$

IAZ064-065-067-068-078-230800-
   EAST CENTRAL IOWA

CITY           SKY/WX    TMP DP  RH WIND       PRES   REMARKS
DAVENPORT      PTCLDY    76  72  87 SW8       29.67R
IOWA CITY      LGT RAIN  78  72  81 SW8       29.66R HX  80
MT. PLEASANT * CLEAR     75  73  92 S12G18    29.65F
MUSCATINE *    MOCLDY    77  72  83 SW7       29.64R
QUAD CITIES    CLEAR     77  71  82 S12       29.62F
$$

IAZ062-063-075>077-085>089-095>099-230800-
   SOUTHEAST IOWA

CITY           SKY/WX    TMP DP  RH WIND       PRES   REMARKS
BURLINGTON     CLOUDY    76  73  91 SW9       29.66F
FAIRFIELD *    CLOUDY    75  72  88 SW7       29.66F
FORT MADISON * CLOUDY    75  73  94 S8        29.68F
KEOKUK *       CLOUDY    77  73  88 S12       29.66F
OSKALOOSA *    LGT RAIN  71  67  88 NW15G22   29.70R
CENTERVILLE *  MOCLDY    70  64  83 N23G31    29.74R
OTTUMWA        LGT RAIN  74  71  91 NW14      29.70R
WASHINGTON *   CLOUDY    75  73  94 S14G24    29.63F
$$

ABBREVIATIONS USED IN REMARKS
   TC - TEMPERATURES IN CELSIUS
  WCI - WIND CHILL INDEX
   HX - HEAT INDEX
  VSB - VISIBILITY
$$





USA.gov is the U.S. government's official web portal to all federal, state and local government web resources and services.